When you browse on this site, cookies collect data to enhance your experience and personalize the content and advertising you see.
Visit our Privacy Policy to learn more. By continuing to use the site, you agree to this use of cookies and data.
  • In Spain
  • List of Countries
  • For 7 days
  • Water Temperature
  • Weather Map
  • Weather Widgets
  • user-avatar
    Login

    Hourly Weather Perugia

    Today, 21 August, Wednesday

    Time Temperature Precipitation Wind Pressure Humidity
    00:00 +21°C° 0 mm 0 mps 730 mmHg 51%
    01:00 +20°C° 0 mm 0 mps 730 mmHg 52%
    02:00 +20°C° 0 mm 0 mps 730 mmHg 53%
    03:00 +19°C° 0 mm 0 mps 730 mmHg 54%
    04:00 +19°C° 0 mm 0 mps 730 mmHg 55%
    05:00 +20°C° 0 mm 0 mps 730 mmHg 52%
    06:00 +22°C° 0 mm 0 mps 730 mmHg 49%
    07:00 +23°C° 0 mm 0 mps 731 mmHg 45%
    08:00 +26°C° 0 mm 0 mps 731 mmHg 39%
    09:00 +29°C° 0 mm 0 mps 731 mmHg 33%
    10:00 +32°C° 0 mm 0 mps 731 mmHg 26%
    11:00 +35°C° 0 mm 1 mps 731 mmHg 25%
    12:00 +37°C° 0 mm 1 mps 731 mmHg 23%
    13:00 +39°C° 0 mm 1 mps 731 mmHg 21%
    14:00 +38°C° 0 mm 2 mps 731 mmHg 24%
    15:00 +37°C° 0 mm 3 mps 731 mmHg 26%
    16:00 +35°C° 0 mm 4 mps 730 mmHg 29%
    17:00 +33°C° 0 mm 3 mps 730 mmHg 35%
    18:00 +30°C° 0 mm 3 mps 730 mmHg 41%
    19:00 +28°C° 0 mm 2 mps 730 mmHg 47%
    20:00 +27°C° 0 mm 2 mps 730 mmHg 52%
    21:00 +25°C° 0 mm 1 mps 730 mmHg 57%
    22:00 +24°C° 0 mm 1 mps 731 mmHg 62%
    23:00 +23°C° 0 mm 1 mps 731 mmHg 64%

    Tomorrow, 22 August, Thursday

    Time Temperature Precipitation Wind Pressure Humidity
    00:00 +23°C° 0 mm 1 mps 731 mmHg 65%
    01:00 +22°C° 0 mm 1 mps 731 mmHg 67%
    02:00 +22°C° 0.1 mm 1 mps 730 mmHg 69%
    03:00 +21°C° 0.1 mm 1 mps 730 mmHg 72%
    04:00 +21°C° 0.1 mm 1 mps 730 mmHg 75%
    05:00 +22°C° 0.1 mm 1 mps 730 mmHg 73%
    06:00 +23°C° 0.1 mm 1 mps 731 mmHg 72%
    07:00 +23°C° 0.1 mm 1 mps 731 mmHg 71%
    08:00 +26°C° 0.1 mm 1 mps 731 mmHg 62%
    09:00 +28°C° 0.1 mm 2 mps 732 mmHg 54%
    10:00 +31°C° 0.1 mm 2 mps 732 mmHg 45%
    11:00 +32°C° 0 mm 2 mps 732 mmHg 40%
    12:00 +35°C° 0 mm 2 mps 732 mmHg 35%
    13:00 +37°C° 0 mm 2 mps 732 mmHg 29%
    14:00 +36°C° 0.1 mm 2 mps 732 mmHg 34%
    15:00 +34°C° 0.1 mm 3 mps 731 mmHg 39%
    16:00 +33°C° 0.1 mm 4 mps 731 mmHg 44%
    17:00 +30°C° 0.3 mm 3 mps 731 mmHg 53%
    18:00 +27°C° 0.3 mm 3 mps 731 mmHg 62%
    19:00 +25°C° 0.3 mm 2 mps 731 mmHg 71%
    20:00 +24°C° 0.2 mm 2 mps 731 mmHg 75%
    21:00 +23°C° 0.2 mm 2 mps 731 mmHg 79%
    22:00 +22°C° 0.2 mm 1 mps 731 mmHg 84%
    23:00 +22°C° 0 mm 1 mps 731 mmHg 84%

    Day after tomorrow, 23 August, Friday

    Time Temperature Precipitation Wind Pressure Humidity
    00:00 +22°C° 0 mm 1 mps 731 mmHg 84%
    01:00 +22°C° 0 mm 1 mps 731 mmHg 85%
    02:00 +21°C° 0 mm 1 mps 731 mmHg 85%
    03:00 +21°C° 0 mm 1 mps 730 mmHg 86%
    04:00 +21°C° 0 mm 1 mps 730 mmHg 86%
    05:00 +21°C° 0.9 mm 1 mps 731 mmHg 85%
    06:00 +22°C° 0.9 mm 1 mps 731 mmHg 85%
    07:00 +22°C° 0.9 mm 1 mps 731 mmHg 84%
    08:00 +24°C° 0.1 mm 1 mps 731 mmHg 75%
    09:00 +26°C° 0.1 mm 1 mps 732 mmHg 66%
    10:00 +28°C° 0.1 mm 2 mps 732 mmHg 58%
    11:00 +29°C° 0 mm 2 mps 732 mmHg 53%
    12:00 +30°C° 0 mm 2 mps 732 mmHg 49%
    13:00 +31°C° 0 mm 2 mps 732 mmHg 44%
    14:00 +29°C° 1.4 mm 3 mps 731 mmHg 52%
    15:00 +27°C° 1.4 mm 3 mps 731 mmHg 60%
    16:00 +25°C° 1.4 mm 3 mps 730 mmHg 68%
    17:00 +24°C° 1 mm 3 mps 731 mmHg 73%
    18:00 +21°C° 1 mm 2 mps 731 mmHg 77%
    19:00 +21°C° 1 mm 1 mps 731 mmHg 82%
    20:00 +21°C° 0 mm 1 mps 731 mmHg 83%
    21:00 +20°C° 0 mm 1 mps 731 mmHg 84%
    22:00 +19°C° 0 mm 1 mps 731 mmHg 85%
    23:00 +19°C° 0 mm 1 mps 730 mmHg 84%

    24 August, Saturday

    Time Temperature Precipitation Wind Pressure Humidity
    00:00 +17°C° 0 mm 0 mps 730 mmHg 84%
    01:00 +17°C° 0 mm 0 mps 730 mmHg 84%
    02:00 +17°C° 0 mm 0 mps 730 mmHg 83%
    03:00 +17°C° 0 mm 0 mps 730 mmHg 82%
    04:00 +17°C° 0 mm 0 mps 730 mmHg 82%
    05:00 +18°C° 0 mm 0 mps 730 mmHg 78%
    06:00 +19°C° 0 mm 0 mps 730 mmHg 75%
    07:00 +20°C° 0 mm 0 mps 730 mmHg 71%
    08:00 +23°C° 0 mm 0 mps 731 mmHg 61%
    09:00 +25°C° 0 mm 0 mps 731 mmHg 51%
    10:00 +30°C° 0 mm 1 mps 731 mmHg 41%
    11:00 +32°C° 0 mm 1 mps 731 mmHg 36%
    12:00 +33°C° 0 mm 1 mps 731 mmHg 32%
    13:00 +34°C° 0 mm 1 mps 731 mmHg 27%
    14:00 +34°C° 0.2 mm 2 mps 731 mmHg 33%
    15:00 +31°C° 0.2 mm 2 mps 730 mmHg 38%
    16:00 +30°C° 0.2 mm 3 mps 730 mmHg 43%
    17:00 +27°C° 1.1 mm 2 mps 730 mmHg 57%
    18:00 +24°C° 1.1 mm 2 mps 729 mmHg 71%
    19:00 +20°C° 1.1 mm 2 mps 729 mmHg 85%
    20:00 +21°C° 0.1 mm 1 mps 729 mmHg 84%
    21:00 +20°C° 0.1 mm 1 mps 729 mmHg 84%
    22:00 +18°C° 0.1 mm 0 mps 729 mmHg 83%
    23:00 +18°C° 0 mm 0 mps 729 mmHg 83%

    25 August, Sunday

    Time Temperature Precipitation Wind Pressure Humidity
    00:00 +18°C° 0 mm 0 mps 729 mmHg 82%
    01:00 +17°C° 0 mm 0 mps 729 mmHg 82%
    02:00 +17°C° 0 mm 0 mps 729 mmHg 81%
    03:00 +17°C° 0 mm 0 mps 729 mmHg 81%
    04:00 +17°C° 0 mm 0 mps 729 mmHg 81%
    05:00 +18°C° 0 mm 0 mps 729 mmHg 77%
    06:00 +19°C° 0 mm 0 mps 729 mmHg 74%
    07:00 +20°C° 0 mm 0 mps 729 mmHg 70%
    08:00 +23°C° 0 mm 0 mps 730 mmHg 61%
    09:00 +25°C° 0 mm 0 mps 730 mmHg 52%
    10:00 +30°C° 0 mm 1 mps 730 mmHg 42%
    11:00 +31°C° 0 mm 1 mps 730 mmHg 38%
    12:00 +33°C° 0 mm 1 mps 730 mmHg 34%
    13:00 +34°C° 0 mm 1 mps 730 mmHg 30%
    14:00 +34°C° 0 mm 1 mps 730 mmHg 31%
    15:00 +34°C° 0 mm 2 mps 730 mmHg 33%
    16:00 +32°C° 0 mm 2 mps 729 mmHg 35%
    17:00 +30°C° 0.1 mm 2 mps 729 mmHg 43%
    18:00 +28°C° 0.1 mm 2 mps 729 mmHg 51%
    19:00 +26°C° 0.1 mm 1 mps 729 mmHg 60%
    20:00 +25°C° 0.2 mm 1 mps 729 mmHg 65%
    21:00 +24°C° 0.2 mm 1 mps 729 mmHg 70%
    22:00 +20°C° 0.2 mm 0 mps 729 mmHg 75%
    23:00 +20°C° 0 mm 0 mps 729 mmHg 76%

    26 August, Monday

    Time Temperature Precipitation Wind Pressure Humidity
    00:00 +20°C° 0 mm 0 mps 729 mmHg 77%
    01:00 +19°C° 0 mm 0 mps 729 mmHg 77%
    02:00 +19°C° 0 mm 0 mps 729 mmHg 78%
    03:00 +19°C° 0 mm 0 mps 729 mmHg 79%
    04:00 +18°C° 0 mm 0 mps 729 mmHg 80%
    05:00 +19°C° 0 mm 0 mps 729 mmHg 77%
    06:00 +20°C° 0 mm 0 mps 729 mmHg 74%
    07:00 +21°C° 0 mm 0 mps 730 mmHg 71%
    08:00 +26°C° 0 mm 1 mps 730 mmHg 62%
    09:00 +28°C° 0 mm 1 mps 730 mmHg 53%
    10:00 +30°C° 0 mm 1 mps 731 mmHg 44%
    11:00 +32°C° 0 mm 2 mps 731 mmHg 39%
    12:00 +34°C° 0 mm 2 mps 731 mmHg 34%
    13:00 +35°C° 0 mm 2 mps 731 mmHg 28%
    14:00 +35°C° 0 mm 3 mps 731 mmHg 29%
    15:00 +35°C° 0 mm 3 mps 730 mmHg 30%
    16:00 +35°C° 0 mm 3 mps 730 mmHg 31%
    17:00 +33°C° 0 mm 3 mps 730 mmHg 38%
    18:00 +29°C° 0 mm 3 mps 730 mmHg 45%
    19:00 +27°C° 0 mm 2 mps 730 mmHg 52%
    20:00 +26°C° 0 mm 2 mps 730 mmHg 56%
    21:00 +25°C° 0 mm 1 mps 730 mmHg 60%
    22:00 +24°C° 0 mm 1 mps 730 mmHg 64%
    23:00 +23°C° 0 mm 1 mps 730 mmHg 66%
    Show more